Simultaneous Nadir Overpasses (SNOs) Predictions

Prediction of SNOs between METOP-C and LANDSAT-8 Satellite Orbit:

Table of predicted SNOs for the next 14.0 days since TLE Epoch: 11/12/2022
Index Date (METOP-C) Time (METOP-C) Lat,Lon (METOP-C) SZA (METOP-C ) Date (LANDSAT-8) Time (LANDSAT-8) Lat,Lon (LANDSAT-8) SZA (LANDSAT-8 ) Distance(km) Time Diff (sec)
1 11/12/2022 20:04:53 81.09, -82.03 101.23 11/12/2022 20:06:01 81.08, -82.18 101.23 2.73 68
2 11/12/2022 20:55:33 -81.12, 86.02 78.67 11/12/2022 20:55:26 -81.12, 86.08 78.67 1.21 7
3 11/15/2022 15:39:17 81.08, -15.91 101.91 11/15/2022 15:40:14 81.08, -15.72 101.95 3.31 57
4 11/15/2022 16:29:56 -81.12, 152.50 77.95 11/15/2022 16:29:39 -81.13, 152.56 77.95 1.25 17
5 11/18/2022 11:13:38 81.10, 50.89 102.63 11/18/2022 11:14:25 81.10, 50.94 102.66 0.85 47
6 11/18/2022 12:04:18 -81.12,-141.09 77.28 11/18/2022 12:03:51 -81.12,-141.12 77.29 0.48 27
7 11/21/2022 06:48:01 81.09, 117.26 103.25 11/21/2022 06:48:37 81.10, 117.44 103.29 3.24 36
8 11/21/2022 07:38:41 -81.12, -74.76 76.66 11/21/2022 07:38:03 -81.12, -74.60 76.66 2.84 38
9 11/24/2022 02:22:23 81.10,-176.06 103.86 11/24/2022 02:22:49 81.09,-176.21 103.85 2.85 26



Historial Predications of SNOs between METOP-C and LANDSAT-8
